This is the latest recevied weather packets stored in our database for station/object EA7RX-4. If no packets are shown the sender has not sent any weather packets the latest 10 day(s).
| Time | Temp. | Humidity | Pressure | Rain* | Wind** | Luminosity | Snow |
|---|---|---|---|---|---|---|---|
| 1787836803 | 18.33° C | 57% | 1014.3 hPa | 0 mm | - | 441 W/m² | - |
| 1787836203 | 18.33° C | 62% | 1014.3 hPa | 0 mm | - | 486 W/m² | - |
| 1787835603 | 18.33° C | 57% | 1014.3 hPa | 0 mm | - | 379 W/m² | - |
| 1787835003 | 18.89° C | 50% | 1014.1 hPa | 0 mm | - | 398 W/m² | - |
| 1787834403 | 18.33° C | 51% | 1014.2 hPa | 0 mm | - | 549 W/m² | - |
| 1787833803 | 18.33° C | 58% | 1014.3 hPa | 0 mm | - | 447 W/m² | - |
| 1787833203 | 17.78° C | 66% | 1014 hPa | 0 mm | - | 316 W/m² | - |
| 1787832603 | 17.78° C | 64% | 1014.3 hPa | 0 mm | - | 268 W/m² | - |
| 1787832003 | 17.22° C | 70% | 1014.2 hPa | 0 mm | - | 375 W/m² | - |
| 1787831403 | 17.22° C | 75% | 1014.1 hPa | 0 mm | - | 406 W/m² | - |
| 1787830803 | 16.67° C | 77% | 1014.2 hPa | 0 mm | - | 343 W/m² | - |
| 1787830203 | 16.67° C | 81% | 1014 hPa | 0 mm | - | 291 W/m² | - |
| 1787829603 | 16.67° C | 81% | 1014.1 hPa | 0 mm | - | 258 W/m² | - |
| 1787829003 | 16.11° C | 84% | 1014.1 hPa | 0 mm | - | 232 W/m² | - |
| 1787828403 | 16.11° C | 84% | 1014.1 hPa | 0 mm | - | 129 W/m² | - |
| 1787827803 | 16.11° C | 83% | 1014.1 hPa | 0 mm | - | 285 W/m² | - |
| 1787827203 | 16.11° C | 84% | 1013.9 hPa | 0 mm | - | 204 W/m² | - |
| 1787826603 | 16.11° C | 89% | 1014 hPa | 0 mm | - | 509 W/m² | - |
| 1787826003 | 15.56° C | 90% | 1013.9 hPa | 0.25 mm | - | 301 W/m² | - |
| 1787825403 | 15° C | 91% | 1013.9 hPa | 0.25 mm | - | 152 W/m² | - |
| 1787824803 | 15° C | 91% | 1013.8 hPa | 0.25 mm | - | 121 W/m² | - |
| 1787824203 | 15° C | 92% | 1013.9 hPa | 0.25 mm | - | 195 W/m² | - |
| 1787823603 | 15° C | 92% | 1013.7 hPa | 0.25 mm | - | 78 W/m² | - |
| 1787823003 | 15° C | 91% | 1013.6 hPa | 0.25 mm | - | 96 W/m² | - |
| 1787822403 | 15.56° C | 90% | 1013.4 hPa | 0 mm | - | 69 W/m² | - |
* Rain latest hour (hover to see other rain measurements)
** Current wind speed in m/s (hover to see current wind gust speed)